Location: Canon Road
(40.7761°N, 111.8849°W)
Time: 12:03:45
(UTC+00:00)

LightSail 2 - Pass Details

Date: 11 April 2020
Orbit: 694 x 720 km, 24.0° (Epoch: 01 June)

Event Time Altitude Azimuth Distance (km) Brightness Sun altitude
Exits shadow 11:40:23 10° 199° (SSW) 2,147 7.2 -14.0°
Maximum altitude 11:41:52 11° 182° (S) 2,063 7.3 -13.8°
Drops below altitude 10° 11:43:21 10° 164° (SSE) 2,143 7.5 -13.5°
Sets 11:47:36 0° 131° (SE) 3,054 8.8 -12.8°
